Location: Bremen
(53.0793°N, 8.8017°E)
Time: 09:47:32
(UTC+01:00)

Transit 2A - Pass Details

Date: 01 December 2021
Orbit: 591 x 966 km, 66.7° (Epoch: 26 January)

Event Time Altitude Azimuth Distance (km) Brightness Sun altitude
Exits shadow 03:16:45 17° 31° (NNE) 2,187 8.7 -43.3°
Drops below altitude 10° 03:18:17 10° 37° (NE) 2,693 9.3 -43.1°
Sets 03:21:03 0° 44° (NE) 3,659 10.2 -42.7°
